CAPE
766 1055 1115 810 660 768 716 1215 1553 1781 1983 2125 2301 2323 2362 2424 2547 2573 2364 2148 2331 2444 2312 2355 2361 2628 2114 2145 2431 2575 2526 2288 2094 1926 2499 2651 3388 3465 3562 3673 2803 2361 2043
893 1146 877 936 807 669 655 640 1072 1549 1945 2129 2146 2164 2180 2297 2515 2464 2215 1912 2145 2155 2230 2445 2318 2090 2595 2609 2318 2724 2583 2891 2734 2823 2720 2639 2895 3329 3694 3732 3090 2124 2520
677 550 896 839 847 907 841 784 728 1025 1454 1862 2103 2155 2180 2223 2372 2480 2482 2375 2357 2294 2193 2336 2253 2381 2671 2460 2838 2608 2428 2606 2808 2727 2588 2379 2761 2936 2937 2784 2738 2712 1806
549 436 774 917 1064 988 1087 1058 879 879 979 1356 1576 1708 1977 2184 2236 2257 2320 2421 2438 2290 2329 2196 2085 2225 2392 2533 2454 2704 2872 3013 2681 2790 2240 2167 2301 2534 2886 2200 1550 1613 1949
839 711 725 866 908 946 951 1151 1104 996 894 1129 1277 1361 1604 1813 1916 2361 2385 2406 2433 2462 2352 2289 2050 1898 1691 1767 1763 1995 2461 2411 1966 1930 1830 1793 1727 1766 2228 1757 1542 1691 2105
514 731 823 889 812 739 732 754 865 1012 1051 990 1082 1189 1228 1112 624 1014 1697 2355 2540 2557 2532 2457 2372 1520 1295 970 905 885 1171 2334 2307 1821 1473 1864 2648 2337 1609 1699 1932 1954 1545
167 226 794 898 921 894 730 653 824 759 857 1024 967 951 1348 1601 546 760 1008 2131 2396 2502 2560 2435 2219 1675 1447 1968 1438 1028 845 895 1041 2151 2388 2277 2785 2359 2419 2580 2413 2401 2221
122 135 97 364 739 1027 958 853 807 671 725 1157 922 939 1101 1158 479 479 762 1484 2316 2325 2362 2350 2317 2283 2215 2066 2184 2129 2158 2019 1914 1367 1763 2221 2397 2454 2564 2508 2356 2346 2108
144 197 266 199 206 364 889 952 953 617 631 633 695 933 1028 1356 401 196 211 624 1182 2251 2060 2115 2373 2476 2103 1391 1748 2026 2155 1944 1262 1290 1159 1321 1290 1016 1020 1508 1775 1803 1624
20 97 184 326 205 273 327 499 515 792 449 432 430 658 497 1207 668 253 161 414 763 657 1714 2436 1210 1439 1635 1271 1462 1968 1925 1792 1605 1637 1891 1479 1249 967 821 863 1669 1792 1597
17 42 102 180 300 307 435 373 225 399 799 1018 890 840 704 727 843 416 369 647 649 723 539 565 719 646 781 1036 993 2276 2001 1869 1454 1933 1899 1749 1660 1731 1833 1596 1718 1780 1631
0 0 24 55 244 369 308 342 451 218 116 219 1125 1096 987 1090 584 645 666 597 531 930 1165 877 1033 605 735 751 726 600 791 1029 1381 1498 1458 1256 1338 1479 1595 1848 2200 2098 2024
0 0 0 106 112 71 93 268 279 374 90 159 477 820 1000 1239 1248 569 600 695 734 728 839 747 570 524 385 387 469 440 456 691 1007 1294 1212 1137 1338 1588 2147 2021 2173 2468 2581
0 0 0 0 9 8 79 84 26 94 136 59 131 707 830 1195 1398 1429 847 691 770 837 826 680 460 500 492 717 666 743 955 1190 1391 1361 1294 1358 1662 1945 1950 1878 1851 1868 2028
0 0 0 0 0 0 0 3 4 16 7 38 220 854 940 1144 1555 1499 1514 1206 795 966 973 907 882 1049 1188 1119 1276 1590 1728 1626 1400 1458 1588 1600 1738 1883 1967 1933 1941 1907 1954
0 0 0 0 0 0 0 6 1 10 0 34 52 94 133 945 1128 1120 1072 1217 1019 882 1003 1335 1360 1328 1055 1059 1225 1459 1446 1430 1633 1511 1515 1671 1840 2000 2143 2018 2002 2138 2003
0 0 0 0 0 0 0 11 0 0 10 2 46 116 466 784 861 1069 895 917 1104 942 1015 1246 1557 1313 1227 1403 1409 1116 1239 1386 2060 1539 1695 1953 2148 2172 2093 1907 1842 1883 1901
0 0 0 0 0 0 0 2 0 1 0 0 30 63 120 386 704 889 745 782 943 953 1111 1239 1648 1384 1705 1943 1788 2432 1979 1962 1956 2124 2194 2333 2319 2121 1636 1683 1740 1473 1328
0 0 0 0 0 0 0 0 0 0 0 0 1 50 35 152 418 603 735 677 610 791 1035 1241 1459 1679 1908 1925 1929 1909 2306 2987 2351 2181 2477 2456 2172 1732 1459 1891 1765 1900 1316
0 0 0 0 0 0 0 0 0 0 12 3 0 6 62 82 188 358 433 311 249 996 1462 962 782 1128 1678 1949 1959 1541 1891 2255 2391 2230 2334 2355 2393 1835 1432 1901 1946 2182 2232
2 2 1 0 0 0 0 0 0 0 0 0 0 0 48 39 181 232 254 155 170 383 128 121 360 514 793 1183 1444 1497 1407 1519 2132 1962 2130 1479 1354 1602 1762 2137 1851 2488 2571
3 1 1 0 0 0 0 0 0 0 0 0 0 0 4 89 119 168 216 180 113 16 99 59 122 251 423 551 802 1077 1393 1716 1588 1478 1640 1611 1418 1390 1525 1602 1814 1739 2254
0 0 0 0 0 0 0 0 0 0 0 0 0 0 0 46 119 113 91 261 286 161 24 135 307 324 473 488 585 647 705 943 958 853 770 883 835 844 820 736 641 730 1582
0 0 0 1 0 0 0 0 0 0 1 3 0 7 11 66 141 216 198 287 411 442 538 397 553 532 564 489 435 371 390 585 444 320 228 137 167 223 256 284 332 486 1045
0 0 0 0 0 0 0 0 0 0 0 6 1 26 58 144 254 326 474 567 540 391 437 644 388 386 555 404 416 339 270 360 277 206 148 164 147 192 193 172 197 242 234
0 0 0 0 0 0 0 0 0 0 2 3 10 33 126 215 290 284 359 397 210 199 406 434 409 282 290 108 139 281 95 108 137 159 112 153 139 92 61 59 29 25 44
CIN
-126 -110 -109 -130 -128 -107 -89 -42 -31 -35 -42 -36 -27 -21 -15 -16 -9 -17 -15 -11 -10 -4 -6 -6 -8 -9 -8 -7 -6 -4 -3 -9 -6 -29 -17 -25 -17 -7 -13 -13 -43 -109 -166
-112 -97 -109 -116 -128 -114 -116 -109 -59 -31 -33 -38 -36 -31 -30 -18 -17 -15 -13 -11 -12 -10 -6 -4 -4 -2 -6 -6 -3 -1 -0 -0 -0 -2 -3 -22 -15 -8 -9 -16 -39 -103 -116
-128 -141 -102 -107 -119 -114 -106 -111 -108 -67 -36 -30 -32 -35 -32 -32 -24 -24 -17 -14 -6 -5 -7 -3 -3 -0 -0 -0 -0 -0 -0 -0 -0 -0 -12 -36 -28 -20 -31 -39 -60 -70 -161
-74 -119 -92 -96 -87 -115 -94 -97 -110 -101 -67 -42 -48 -44 -34 -33 -31 -22 -22 -23 -18 -11 -8 -8 -6 -1 -0 -0 -0 -0 -0 -0 -0 -0 -26 -45 -44 -40 -16 -69 -143 -137 -142
-38 -61 -78 -68 -67 -73 -84 -76 -85 -94 -88 -60 -44 -44 -33 -24 -19 -27 -27 -26 -29 -25 -17 -14 -17 -21 -33 -29 -4 -1 -0 -0 -7 -24 -48 -62 -76 -72 -32 -94 -142 -147 -104
-59 -49 -37 -41 -59 -84 -88 -88 -77 -74 -78 -70 -59 -50 -43 -25 -52 -88 -56 -21 -23 -25 -19 -20 -21 -54 -74 -93 -113 -138 -89 -1 -0 -27 -81 -59 -20 -31 -86 -91 -93 -104 -146
-37 -48 -9 -8 -24 -46 -69 -80 -74 -98 -75 -61 -68 -59 -49 -39 -99 -112 -101 -15 -11 -19 -25 -19 -15 -15 -61 -25 -51 -113 -151 -151 -163 -27 -13 -26 -13 -26 -24 -29 -45 -59 -72
-10 -26 -51 -51 -40 -14 -30 -54 -66 -91 -82 -43 -71 -68 -65 -74 -164 -175 -143 -45 -8 -14 -17 -22 -23 -18 -30 -39 -22 -19 -19 -28 -60 -117 -85 -57 -38 -30 -15 -21 -53 -67 -101
-1 -1 -8 -30 -47 -58 -40 -39 -38 -70 -80 -89 -84 -79 -81 -67 -204 -277 -214 -89 -29 -8 -26 -27 -17 -22 -48 -108 -47 -25 -21 -53 -97 -118 -143 -155 -171 -174 -148 -119 -84 -55 -88
-57 -23 -23 -11 -38 -28 -53 -54 -59 -35 -84 -83 -108 -105 -166 -94 -173 -181 -82 -137 -72 -94 -25 -5 -112 -92 -89 -128 -105 -39 -26 -84 -67 -56 -61 -120 -173 -213 -183 -201 -96 -55 -63
-4 -11 -16 -33 -3 -6 -6 -34 -64 -20 -7 -16 -40 -67 -109 -123 -149 -118 -112 -151 -110 -107 -136 -143 -153 -246 -240 -181 -167 -31 -54 -66 -89 -45 -62 -75 -89 -103 -92 -130 -126 -74 -77
-0 -0 -32 -95 -0 -0 -9 -26 -13 -21 -76 -43 -18 -35 -76 -88 -67 -55 -68 -67 -85 -98 -71 -103 -120 -252 -275 -256 -225 -294 -238 -169 -94 -84 -97 -127 -108 -99 -80 -75 -66 -72 -59
-0 -0 -0 -0 -3 -0 -3 -7 -4 -1 -6 -52 -14 -35 -66 -67 -87 -22 -99 -34 -40 -77 -130 -171 -224 -247 -314 -307 -286 -301 -264 -184 -161 -114 -135 -150 -107 -80 -50 -66 -66 -42 -32
-0 -0 -0 -0 -19 -38 -1 -23 -20 -3 -0 -1 -5 -3 -54 -43 -42 -73 -128 -8 -8 -20 -77 -109 -213 -263 -236 -182 -210 -203 -149 -122 -91 -103 -119 -115 -78 -52 -61 -56 -50 -39 -24
-0 -0 -0 -0 -0 -0 -4 -11 -18 -15 -27 -0 -8 -0 -2 -26 -43 -62 -71 -127 -4 -3 -6 -13 -77 -90 -98 -105 -93 -75 -47 -69 -91 -91 -72 -68 -58 -43 -48 -46 -44 -42 -23
-0 -0 -0 -0 -0 -0 -0 -4 -4 -16 -0 -9 -45 -64 -153 -39 -33 -50 -60 -78 -101 -40 -28 -6 -30 -57 -118 -129 -105 -83 -82 -78 -55 -64 -58 -39 -31 -24 -16 -27 -30 -23 -34
-0 -0 -0 -0 -0 -0 -0 -5 -1 -0 -0 -6 -33 -40 -25 -62 -54 -45 -53 -57 -38 -31 -27 -37 -21 -46 -79 -57 -57 -83 -84 -61 -16 -53 -35 -25 -18 -16 -24 -36 -34 -38 -61
-0 -0 -0 -0 -0 -0 -0 -7 -0 -1 -0 -0 -28 -65 -72 -73 -78 -53 -56 -39 -20 -5 -12 -15 -5 -24 -4 -0 -13 -0 -3 -11 -2 -13 -17 -13 -8 -12 -47 -27 -23 -89 -118
-0 -0 -0 -0 -0 -0 -0 -0 -0 -0 -0 -0 -2 -45 -159 -80 -116 -105 -73 -51 -44 -31 -21 -17 -5 -0 -0 -0 -0 -0 -0 -0 -0 -0 -0 -0 -7 -33 -29 -15 -30 -25 -82
-0 -0 -0 -0 -0 -0 -0 -0 -0 -0 -0 -0 -0 -46 -125 -99 -56 -59 -43 -53 -25 -15 -0 -5 -14 -14 -4 -0 -0 -3 -0 -0 -0 -0 -0 -0 -2 -29 -44 -18 -25 -13 -4
-0 -0 -0 -0 -0 -0 -0 -0 -0 -0 -0 -0 -0 -0 -67 -132 -53 -75 -58 -69 -78 -58 -17 -9 -38 -11 -15 -3 -0 -0 -5 -0 -0 -0 -4 -19 -23 -51 -44 -24 -35 -8 -5
-0 -1 -0 -0 -0 -0 -0 -0 -0 -0 -0 -0 -0 -0 -77 -90 -94 -92 -60 -54 -103 -264 -174 -151 -30 -12 -19 -55 -27 -16 -2 -0 -11 -16 -21 -26 -36 -32 -27 -32 -29 -37 -6
-0 -0 -0 -0 -0 -0 -0 -0 -0 -0 -0 -0 -0 -0 -0 -100 -62 -61 -93 -43 -63 -100 -61 -94 -50 -70 -61 -84 -61 -40 -36 -15 -21 -36 -67 -64 -56 -51 -46 -31 -55 -51 -13
-0 -0 -0 -0 -0 -0 -0 -0 -0 -0 -0 -0 -0 -209 -150 -117 -77 -41 -62 -67 -28 -18 -4 -31 -19 -12 -19 -38 -42 -55 -45 -27 -45 -38 -43 -53 -178 -166 -141 -144 -144 -120 -36
-0 -0 -0 -0 -0 -0 -0 -0 -0 -0 -0 -0 -0 -162 -96 -63 -37 -19 -0 -0 -8 -19 -3 -0 -21 -7 -2 -5 -6 -2 -8 -6 -24 -31 -63 -48 -48 -58 -81 -87 -82 -56 -34
-0 -0 -0 -0 -0 -0 -0 -0 -0 -0 -0 -0 -0 -106 -47 -23 -26 -10 -2 -1 -21 -19 -3 -0 -0 -0 -0 -29 -13 -0 -8 -19 -10 -7 -22 -0 -2 -9 -66 -46 -15 -16 -38
Wind_Speed
18 17 15 14 14 14 14 12 10 8 7 5 3 4 6 4 3 3 7 10 10 11 11 12 12 12 13 11 11 11 10 8 10 9 6 6 6 5 5 4 6 8 10
26 25 19 19 17 14 14 13 12 10 9 6 4 4 5 7 6 6 5 8 9 10 9 8 9 10 9 9 8 8 8 6 7 8 7 5 4 4 4 4 4 4 6
29 29 27 22 20 17 16 16 15 13 10 9 8 6 5 5 6 6 6 6 7 9 10 8 7 7 8 8 7 9 8 6 4 5 6 4 2 1 1 4 5 6 5
21 25 26 23 22 22 21 21 19 17 14 11 10 10 8 6 6 7 7 8 7 8 11 11 9 7 6 6 5 5 5 5 4 2 2 2 1 1 2 3 6 8 6
27 22 22 24 25 26 26 24 22 20 17 16 14 12 11 9 9 6 7 8 9 9 10 13 13 11 10 7 8 7 8 5 4 4 4 4 4 2 2 6 5 7 8
40 29 27 28 28 28 27 27 27 22 21 20 17 16 14 13 14 13 10 9 9 9 10 10 12 15 13 10 10 8 8 9 8 9 9 10 8 7 7 8 8 9 8
49 49 35 30 27 29 30 30 29 28 26 23 21 20 16 15 21 19 15 12 12 11 9 9 10 13 13 12 14 14 13 12 11 11 9 10 9 8 6 8 8 7 7
54 60 nan 50 35 25 25 28 30 32 29 29 26 24 22 19 23 23 23 16 15 12 11 9 7 8 9 10 11 10 11 10 11 13 10 9 7 8 9 8 8 6 7
50 40 47 46 44 43 32 24 27 32 32 30 30 28 26 22 24 25 30 21 17 15 15 13 11 10 12 16 10 9 10 10 16 14 8 9 10 11 10 9 9 6 8
nan nan 47 53 50 47 44 44 37 38 31 34 33 31 30 26 28 27 30 27 21 18 18 16 17 11 18 25 15 11 9 14 16 13 12 12 11 11 18 15 10 8 9
nan nan 56 59 59 51 51 50 46 42 29 31 32 36 33 32 29 32 33 28 23 21 20 19 17 21 17 25 22 13 10 18 18 14 10 11 13 14 16 18 13 12 12
nan nan nan nan 52 58 59 58 54 44 43 40 37 35 37 35 33 35 35 29 26 21 20 21 21 26 25 23 25 13 13 18 16 15 13 13 15 16 18 16 14 17 15
nan nan nan 54 51 nan nan 57 59 55 nan 44 41 39 39 38 40 36 39 35 27 26 21 22 25 29 29 26 21 21 20 16 15 16 16 15 18 19 17 16 16 17 17
nan nan nan nan nan nan nan nan nan nan 48 nan 50 46 47 45 41 44 46 44 37 35 25 28 27 28 29 27 28 25 23 21 18 18 17 20 23 23 21 20 18 20 18
nan nan nan nan nan nan nan nan nan nan nan nan 48 47 49 42 40 43 48 51 47 42 41 37 32 28 28 29 28 27 30 27 24 23 23 24 25 24 24 25 22 21 19
nan nan nan nan nan nan nan nan nan nan nan nan nan nan 50 39 42 46 45 46 50 55 52 41 37 36 33 33 35 34 33 30 29 30 28 27 26 27 27 31 29 25 21
nan nan nan nan nan nan nan nan nan nan nan nan nan 37 43 33 48 49 45 50 56 60 50 44 41 40 39 38 37 36 35 36 38 35 32 31 30 28 31 32 33 32 27
nan nan nan nan nan nan nan nan nan nan nan nan nan nan 44 40 46 44 53 63 63 58 48 48 47 46 45 43 43 41 40 41 37 37 34 31 31 32 34 35 35 34 33
nan nan nan nan nan nan nan nan nan nan nan nan nan nan nan 41 52 45 51 53 52 45 43 44 46 48 45 42 42 42 41 40 38 36 33 32 33 33 35 35 35 36 36
nan nan nan nan nan nan nan nan nan nan nan nan nan nan nan nan 51 56 44 38 36 33 40 41 40 42 42 42 40 41 42 41 37 33 33 32 33 33 33 36 37 37 39
nan nan nan nan nan nan nan nan nan nan nan nan nan nan nan nan 52 56 52 42 38 42 51 53 52 45 45 43 43 43 44 44 44 44 43 41 38 35 34 35 38 41 41
nan nan nan nan nan nan nan nan nan nan nan nan nan nan nan nan 50 54 61 61 55 nan nan nan 43 46 52 48 43 38 40 43 45 45 45 44 43 42 42 40 40 43 45
nan nan nan nan nan nan nan nan nan nan nan nan nan nan nan nan 55 51 nan 53 57 60 nan 50 55 48 45 43 45 40 36 40 42 39 37 40 41 41 41 42 41 45 47
nan nan nan nan nan nan nan nan nan nan nan nan nan nan nan nan 53 55 53 52 58 58 55 51 53 52 53 49 44 41 44 43 36 36 40 43 49 46 47 50 51 51 57
nan nan nan nan nan nan nan nan nan nan nan nan nan nan nan 53 54 52 52 52 53 60 64 56 53 66 59 56 55 53 51 51 51 41 48 51 55 59 58 59 57 58 55
nan nan nan nan nan nan nan nan nan nan nan nan nan nan 61 65 61 59 58 58 55 59 60 62 69 63 62 58 59 56 nan 55 57 54 59 64 63 nan nan nan nan nan nan
Wind_Direction
212 208 219 218 212 207 197 190 188 201 216 191 167 165 166 183 191 228 197 191 183 183 184 176 166 169 169 165 159 152 147 143 135 142 134 137 116 119 120 106 65 45 3
220 215 208 213 220 220 218 211 204 197 218 232 198 182 165 172 188 173 207 207 194 188 177 175 170 176 162 168 169 154 149 151 143 138 160 149 138 113 84 78 36 40 5
222 228 221 218 216 219 220 229 226 215 215 236 246 226 201 184 187 195 183 183 202 198 198 185 170 190 180 184 178 176 176 182 173 159 166 177 157 95 85 350 343 352 12
228 227 234 232 229 220 223 228 230 233 229 225 237 248 238 224 206 190 204 196 192 206 218 217 201 195 182 188 196 192 194 199 202 179 181 173 267 250 347 341 320 319 330
219 220 226 231 237 234 235 234 234 233 233 239 240 246 252 254 243 225 209 207 206 207 223 231 229 228 228 213 215 227 214 228 236 250 271 295 295 266 233 278 311 301 320
220 218 217 223 230 234 235 240 241 240 241 240 245 250 257 252 263 268 248 230 221 222 223 231 231 248 247 257 263 262 245 248 257 261 274 283 293 301 302 290 274 269 293
225 218 221 224 224 229 232 238 242 240 236 241 243 248 251 254 265 277 278 245 238 234 230 229 231 242 257 245 264 268 269 285 298 279 277 289 282 302 290 287 281 265 284
231 220 nan 219 219 230 241 239 241 244 244 243 242 247 245 246 265 274 278 264 246 246 249 244 236 235 258 260 255 251 256 262 280 281 292 288 300 293 297 293 284 292 288
237 231 228 218 223 222 220 225 232 235 241 244 244 246 253 242 260 269 267 259 254 251 250 255 253 247 259 283 262 247 247 250 269 292 298 293 300 293 308 302 314 295 276
nan nan 232 231 226 221 222 222 233 237 235 240 242 244 246 247 258 266 271 257 252 252 257 261 272 260 267 280 278 264 266 264 258 264 287 289 298 291 323 331 334 309 276
nan nan 238 236 230 226 229 228 229 240 233 239 246 248 245 247 244 263 271 261 256 250 252 256 262 288 276 279 290 273 285 271 269 266 261 256 268 280 296 311 324 312 300
nan nan nan nan 230 229 228 229 230 232 235 235 243 245 247 248 253 254 264 274 261 251 245 247 250 273 285 284 282 288 282 281 274 260 252 252 262 275 293 294 306 321 310
nan nan nan 241 232 nan nan 233 237 236 nan 248 242 260 245 242 246 257 260 266 265 253 244 243 245 262 276 278 292 285 284 280 276 267 266 265 269 275 283 285 297 313 321
nan nan nan nan nan nan nan nan nan nan 242 nan 249 254 253 252 237 244 249 252 256 254 243 244 240 245 262 268 274 281 277 275 271 266 265 268 277 287 291 290 290 297 304
nan nan nan nan nan nan nan nan nan nan nan nan 235 244 253 235 238 243 244 247 250 254 252 246 248 250 253 263 266 268 273 277 276 269 263 263 270 279 285 288 294 294 302
nan nan nan nan nan nan nan nan nan nan nan nan nan nan 236 250 236 246 252 252 252 252 251 249 252 255 257 258 260 265 268 272 273 272 272 274 273 273 278 285 290 296 301
nan nan nan nan nan nan nan nan nan nan nan nan nan 240 247 245 239 241 246 246 250 256 251 252 250 254 255 254 254 256 262 266 267 272 275 277 280 279 277 274 279 283 286
nan nan nan nan nan nan nan nan nan nan nan nan nan nan 226 230 233 233 242 250 244 243 250 248 248 250 249 252 254 254 256 259 266 270 274 277 281 279 277 277 276 276 277
nan nan nan nan nan nan nan nan nan nan nan nan nan nan nan 218 228 249 252 252 249 241 245 245 249 248 248 250 252 254 255 258 263 268 271 275 276 275 275 274 273 277 276
nan nan nan nan nan nan nan nan nan nan nan nan nan nan nan nan 226 241 241 240 240 235 242 246 246 244 245 246 248 250 250 253 255 260 264 266 271 277 280 279 275 272 275
nan nan nan nan nan nan nan nan nan nan nan nan nan nan nan nan 232 238 238 234 234 239 240 235 235 234 234 235 237 242 247 248 248 250 253 257 261 269 276 279 281 278 275
nan nan nan nan nan nan nan nan nan nan nan nan nan nan nan nan 239 231 241 236 235 nan nan nan 226 231 231 232 231 233 241 247 250 251 254 257 259 263 267 269 276 280 283
nan nan nan nan nan nan nan nan nan nan nan nan nan nan nan nan 242 242 nan 230 237 242 nan 246 247 249 246 245 239 236 239 246 248 249 256 265 265 266 271 278 285 280 285
nan nan nan nan nan nan nan nan nan nan nan nan nan nan nan nan 239 245 252 250 246 246 247 250 250 246 247 249 247 243 243 248 252 263 260 259 266 272 273 280 277 278 287
nan nan nan nan nan nan nan nan nan nan nan nan nan nan nan 242 244 244 249 255 255 258 255 250 255 242 240 243 246 245 245 247 255 253 261 265 271 274 274 278 281 283 283
nan nan nan nan nan nan nan nan nan nan nan nan nan nan 237 242 242 246 251 255 256 257 255 256 257 253 246 246 250 248 nan 248 251 254 264 265 265 nan nan nan nan nan nan